Asuncion, Paraguay

11:35 PM -03 en Noviembre 20, 2017 (GMT -0300)
Silvio Pettirossi International

Tiempo Historia de SGAS - Noviembre, 2017

Change the Weather History Date:

Martes, Noviembre 14, 2017

  Actual Average Record
Temperature  
Temperatura media 76 ° F -  
Temperatura máxima 91 ° F 88 ° F 95 ° F (2005)
Temperatura mínima 60 ° F 69 ° F 35 ° F (1999)
Cooling Degree Days 10    
Growing Degree Days 26 (Base 50)    
Moisture  
Punto de rocío 56 ° F    
Average Humidity 49    
Maximum Humidity 88    
Minimum Humidity 18    
Precipitación  
Precipitación 0.00 pul 0.19 pul - ()
Presión al nivel del mar  
Presión al nivel del mar 29.80 pul    
Viento  
Velocidad del viento 4 mph ()    
Velocidad máxima del viento 12 mph    
Max Gust Speed -    
Visibilidad 8.4 Millas    
Eventos      
Averages and records for this station are not official NWS values.
T = Trace of Precipitation, MM = Missing Value Source: Averaged Metar Reports

Daily Weather History Graph

Daily Weather History Graph

Search for Another Location

Airport or City:

Trip Planner

Search our weather history database for the weather conditions in past years. The results will help you decide how hot, cold, wet, or windy it might be!

Date:

Astronomía

Nov. 14, 2017 Salida Puesta
Hora real 5:54 AM -03 7:14 PM -03
Crepúsculo civil 5:30 AM -03 7:39 PM -03
Crepúsculo náutico 5:00 AM -03 8:08 PM -03
Crepúsculo astronómico 4:30 AM -03 8:39 PM -03
Luna 3:39 AM -03 (11/14) 3:58 PM -03 (11/14)
Horas de luz 14h 09m
Horas de luz
13h 20m
Creciente menguante, 14% of the Moon is Illuminated
Nov 14
Creciente menguante
Nov 18
Nueva
Nov 26
Cuarto creciente
Dic 3
Luna llena
Dic 10
Cuarto menguante

Hourly Weather History & Observations

Hora (-03) Temp. Índice de calor Punto de rocío Humedad Presión Visibilidad Wind Dir Velocidad del viento Velocidad de ráfagas Precip Eventos Condiciones
12:00 AM 71 ° F - 54 ° F 44% 29.86 pul 6 mi SE 6.9 mph - -   Humo
12:00 AM 69.8 ° F - 55.4 ° F 60% 29.83 pul - SE 6.9 mph - N/A   Despejado
1:00 AM 68.0 ° F - 59.0 ° F 73% 29.83 pul - SE 6.9 mph - N/A   Despejado
2:00 AM 68.0 ° F - 55.4 ° F 64% 29.80 pul - SE 6.9 mph - N/A   Despejado
3:00 AM 65 ° F - 57 ° F 69% 29.84 pul 12 mi Sin viento Sin viento - -  
3:00 AM 62.6 ° F - 55.4 ° F 77% 29.80 pul - Sin viento Sin viento - N/A   Despejado
4:00 AM 60.8 ° F - 53.6 ° F 77% 29.80 pul - Sin viento Sin viento - N/A   Despejado
5:00 AM 59.0 ° F - 55.4 ° F 88% 29.80 pul - Sin viento Sin viento - N/A   Despejado
6:00 AM 61 ° F - 57 ° F 82% 29.85 pul 6 mi Sin viento Sin viento - -   Neblina
6:00 AM 59.0 ° F - 53.6 ° F 82% 29.83 pul - Sin viento Sin viento - N/A   Despejado
7:00 AM 64.4 ° F - 55.4 ° F 73% 29.83 pul - Sin viento Sin viento - N/A   Despejado
8:00 AM 73.4 ° F - 59.0 ° F 61% 29.83 pul - Sin viento Sin viento - N/A   Despejado
8:30 AM 78.8 ° F - 57.2 ° F 47% 29.86 pul - ENE 4.6 mph - N/A   Despejado
9:00 AM 79 ° F - 54 ° F 32% 29.86 pul 12 mi ENE 5.8 mph - -  
9:00 AM 80.6 ° F 80.8 ° F 57.2 ° F 45% 29.86 pul - ENE 5.8 mph - N/A   Despejado
9:30 AM 82.4 ° F 82.5 ° F 59.0 ° F 45% 29.86 pul - ENE 8.1 mph - N/A   Despejado
10:00 AM 84.2 ° F 83.5 ° F 57.2 ° F 40% 29.86 pul - ENE 6.9 mph - N/A   Despejado
10:30 AM 86.0 ° F 84.9 ° F 57.2 ° F 37% 29.86 pul - ENE 6.9 mph - N/A   Despejado
12:00 PM 89 ° F - 54 ° F 20% 29.85 pul 12 mi NE 8.1 mph - -  
12:00 PM 89.6 ° F 87.7 ° F 55.4 ° F 31% 29.83 pul - NE 8.1 mph - N/A   Despejado
1:00 PM 89.6 ° F - 51.8 ° F 27% 29.80 pul - NE 9.2 mph - N/A   Despejado
2:00 PM 91.4 ° F 89.1 ° F 53.6 ° F 28% 29.80 pul - NE 10.4 mph - N/A   Despejado
3:00 PM 91 ° F - 53 ° F 18% 29.78 pul 12 mi NE 10.4 mph - -   Despejado
3:00 PM 91.4 ° F - 51.8 ° F 26% 29.77 pul - NE 11.5 mph - N/A   Despejado
4:00 PM 91.4 ° F 89.1 ° F 53.6 ° F 28% 29.74 pul - NE 9.2 mph - N/A   Despejado
5:00 PM 91.4 ° F 89.4 ° F 55.4 ° F 29% 29.71 pul - ENE 8.1 mph - N/A   Despejado
6:00 PM 90 ° F - 52 ° F 18% 29.73 pul 12 mi ENE 6.9 mph - -   Despejado
6:00 PM 89.6 ° F 87.7 ° F 55.4 ° F 31% 29.71 pul - ENE 6.9 mph - N/A   Despejado
7:00 PM 87.8 ° F 87.1 ° F 59.0 ° F 38% 29.71 pul - ESE 2.3 mph - N/A   Despejado
8:00 PM 80.6 ° F 81.1 ° F 59.0 ° F 48% 29.71 pul 5.6 mi ESE 4.6 mph - N/A   Desconocido
9:00 PM 78 ° F - 61 ° F 46% 29.75 pul 6 mi ESE 3.5 mph - -   Humo
9:00 PM 77.0 ° F - 59.0 ° F 54% 29.71 pul 5.6 mi ESE 3.5 mph - N/A   Desconocido
10:00 PM 75.2 ° F - 60.8 ° F 61% 29.74 pul 5.6 mi Sin viento Sin viento - N/A   Desconocido
11:00 PM 73.4 ° F - 62.6 ° F 69% 29.74 pul 5.6 mi Sin viento Sin viento - N/A   Desconocido